Theta_e
314 311 311 311 312 312 313 314 315 314 315 317 317 318 319 322 324 325 329 331 331 333 339 341 338 336 337 338 337 336 340 343 342 343 344 344 344 344 343 343 342 341 341 341 342 341 341 342 342 342 341 342 342 341 340 341 341 340 340 339 338 338 337 336 335 336 336 336 335 335 334 333 333 333 333 332 331 331 331 330 330 330 329 328 328 327 327
313 312 313 312 311 313 313 314 315 315 316 317 316 319 322 325 329 331 330 331 333 334 337 341 342 340 339 341 342 339 339 343 342 342 343 343 343 343 341 340 340 339 340 341 342 342 342 343 343 342 342 342 342 341 341 341 340 340 340 339 339 338 337 336 335 335 336 336 335 334 334 332 332 332 332 331 331 331 330 330 330 329 328 328 328 327 326
315 313 314 313 312 313 313 314 315 315 316 316 317 320 322 321 323 327 328 329 331 333 336 338 337 336 337 339 342 340 340 342 342 342 342 342 341 340 339 339 339 339 340 341 341 341 342 343 343 343 343 342 342 342 341 341 340 340 340 339 339 338 337 336 336 335 336 336 335 334 333 332 332 332 331 331 331 331 330 329 329 329 328 328 328 326 325
317 316 315 314 313 314 314 315 316 315 316 317 320 323 323 322 321 323 327 329 331 334 335 336 334 333 333 335 339 342 342 340 340 341 341 340 339 338 338 338 338 338 340 341 341 342 343 343 343 343 343 342 342 341 341 341 341 340 339 339 339 338 337 337 336 336 336 336 335 334 333 333 332 332 331 331 331 330 330 329 329 329 329 327 326 325 324
318 316 315 314 315 315 315 315 315 317 317 316 320 323 324 325 325 325 328 329 331 333 334 336 336 335 333 333 336 338 341 342 342 341 340 339 338 338 338 338 339 339 341 342 342 343 343 344 344 343 342 342 341 341 341 341 340 339 339 339 338 338 337 337 336 336 336 336 335 334 333 333 332 331 331 331 331 330 330 329 329 330 328 326 325 324 323
319 317 316 315 315 316 317 319 318 317 317 318 322 324 325 326 325 325 328 329 329 332 335 336 337 337 336 336 337 337 339 342 343 342 339 338 339 339 339 339 339 340 341 342 343 342 342 342 342 340 341 342 341 341 342 341 340 339 339 339 338 338 337 336 336 336 335 335 335 334 333 333 332 332 331 331 330 330 330 329 329 328 326 325 325 324 323
319 320 319 316 316 317 320 324 323 317 317 323 328 329 329 329 327 325 328 331 330 332 335 336 336 335 335 335 335 336 338 340 341 339 338 339 340 339 339 339 341 341 342 343 342 338 335 336 334 333 337 340 341 341 341 341 340 339 338 338 337 337 336 336 335 335 335 335 334 334 333 332 331 331 330 330 329 329 329 328 328 327 325 324 324 323 322
319 320 318 316 319 322 322 324 323 320 322 327 329 331 332 331 329 328 330 331 330 332 334 334 333 334 335 335 334 334 336 339 340 340 340 340 341 340 340 341 342 343 343 341 337 333 332 333 332 331 334 337 339 341 341 340 339 339 338 337 337 336 336 335 334 334 334 333 333 333 332 331 330 330 329 329 329 328 328 327 326 326 325 324 322 321 321
320 319 319 321 324 326 325 325 325 325 326 327 328 330 331 330 329 329 330 330 331 333 332 330 330 331 333 336 336 333 333 336 338 339 340 341 341 341 341 342 343 343 341 337 334 332 332 332 332 332 333 333 336 340 340 339 338 338 337 337 336 336 336 335 334 334 333 333 333 333 332 331 330 329 329 329 328 328 327 327 326 325 324 323 322 321 321
318 319 323 325 325 326 325 325 327 326 326 327 327 329 331 329 327 328 329 330 332 334 333 331 331 331 334 339 338 333 332 335 336 336 337 339 341 341 341 342 342 341 338 335 333 333 333 333 332 332 332 331 334 338 339 338 338 337 337 337 336 335 335 335 334 334 333 333 333 332 331 330 330 329 329 328 327 327 326 326 325 324 323 322 321 321 321
319 321 324 324 325 325 325 326 326 324 325 328 325 327 331 330 327 327 329 330 332 334 333 333 334 335 337 341 338 332 332 334 334 334 336 337 338 340 341 341 341 340 337 335 335 334 333 333 333 332 332 332 334 338 339 338 337 337 337 336 336 335 334 334 334 334 333 333 332 331 331 330 329 329 328 327 327 326 325 325 324 323 322 321 320 320 320
320 321 323 323 324 325 324 325 324 322 326 328 324 325 329 329 328 328 330 331 332 332 332 332 334 336 337 338 335 332 331 332 333 334 335 335 336 338 339 339 340 339 336 333 334 334 333 334 334 334 334 335 336 338 338 337 337 337 336 336 336 335 334 334 334 334 334 333 332 331 330 330 329 328 328 327 326 325 325 323 322 321 321 320 319 320 319
321 322 324 324 324 324 323 324 324 323 325 325 323 326 328 328 327 327 330 331 331 331 332 333 334 334 334 333 333 331 331 331 332 334 334 333 334 335 335 335 336 336 333 331 332 333 333 333 333 333 333 333 335 337 337 337 337 336 335 335 335 334 334 334 333 334 333 333 332 331 330 329 329 328 328 327 325 324 324 323 321 320 320 319 319 319 319
321 322 323 323 323 323 323 324 325 324 325 326 326 327 327 326 327 327 328 329 331 331 332 333 333 333 333 332 332 332 332 332 333 334 333 333 333 332 331 331 331 331 330 330 331 332 332 332 331 330 331 331 333 335 337 337 336 335 334 334 333 333 333 332 332 333 332 331 331 330 329 329 328 327 326 325 324 323 323 322 321 320 319 319 319 319 318
321 323 323 323 324 324 324 325 326 327 327 327 327 326 325 325 327 327 327 328 330 332 332 333 333 333 333 332 332 332 333 332 332 333 333 333 333 332 331 329 329 328 328 328 328 329 330 330 329 330 331 331 332 334 335 336 336 334 333 333 333 332 332 332 332 332 331 331 330 329 328 328 327 326 325 324 323 322 321 321 320 320 319 319 318 318 317
322 323 322 324 325 324 324 326 326 327 326 326 326 325 324 325 325 326 325 325 327 331 334 334 334 333 332 332 331 332 332 331 331 332 332 332 333 332 332 331 331 331 331 330 330 330 330 330 329 330 331 331 332 333 334 335 335 334 333 333 332 332 332 332 331 331 330 330 329 328 327 327 326 325 324 323 322 322 321 320 320 319 319 318 317 317 317
323 323 323 324 326 325 324 324 325 325 324 324 324 323 323 323 323 323 324 323 323 327 331 333 333 333 332 331 330 329 330 330 330 331 331 332 333 333 333 333 332 333 333 333 332 332 332 332 332 332 332 332 332 333 333 335 334 334 333 333 333 332 331 330 330 329 329 328 328 326 326 325 325 324 324 323 322 321 320 320 320 319 318 317 317 317 315
323 324 324 325 324 323 322 322 322 322 322 322 323 322 322 322 322 322 321 321 320 323 327 330 331 330 330 329 328 328 328 328 328 329 330 331 331 331 332 332 333 333 333 332 332 332 332 332 332 333 333 334 334 333 333 334 335 334 334 333 332 331 330 329 328 327 327 326 326 326 325 324 324 324 323 323 322 321 320 320 319 319 318 316 315 315 313
322 323 324 324 323 322 320 320 320 320 320 320 321 323 322 321 322 322 320 319 319 320 322 327 329 328 328 328 327 327 327 327 327 328 328 329 329 330 330 330 331 331 331 330 330 330 330 330 331 331 331 332 332 332 332 332 332 332 332 331 329 328 328 327 327 326 325 324 324 324 324 323 323 323 323 322 321 321 320 319 319 318 316 314 313 312 311
321 322 322 322 322 321 319 319 320 319 319 319 319 321 322 321 322 321 319 320 322 321 321 323 327 327 327 327 327 327 327 326 326 326 327 328 328 328 328 329 328 328 329 328 328 328 328 329 329 330 329 329 329 330 330 330 330 330 330 328 326 325 325 325 324 324 323 323 322 322 322 322 321 321 322 321 320 320 319 319 318 316 314 313 312 310 308
320 320 321 321 321 320 319 319 319 318 318 318 318 318 320 320 321 321 321 322 323 323 323 324 324 324 325 327 327 326 326 326 325 326 326 327 327 327 327 327 327 327 327 327 327 327 327 328 328 328 328 328 328 328 329 329 329 328 327 326 325 323 323 323 322 322 321 321 320 319 319 319 319 319 319 319 319 318 318 317 317 315 313 312 311 309 307
319 320 321 322 321 319 318 317 318 317 317 317 317 317 317 318 319 321 322 322 322 323 324 325 324 323 324 325 325 326 326 326 326 326 326 326 326 326 326 326 326 326 326 326 326 326 326 326 326 326 326 327 327 327 327 327 327 325 325 324 323 322 321 321 321 320 319 318 317 317 317 317 316 315 315 316 316 316 315 315 315 314 312 311 310 308 306
321 322 322 321 319 318 317 316 316 317 315 315 316 316 316 317 318 319 320 321 321 322 323 323 324 325 324 324 325 325 325 326 326 327 326 326 326 326 326 325 325 325 324 325 325 325 324 324 324 324 324 324 325 325 325 325 324 323 323 322 321 320 319 318 318 317 316 315 314 314 314 315 314 313 312 312 313 313 313 313 313 312 311 310 308 307 306
321 321 320 319 318 317 316 315 315 315 315 315 314 314 315 316 316 317 319 319 319 320 321 322 323 323 323 323 324 324 324 325 326 325 325 325 325 325 325 324 324 323 323 323 323 323 323 322 322 322 322 322 322 322 322 322 322 322 321 320 318 317 315 314 314 315 314 313 312 312 312 312 312 311 311 309 309 310 311 311 311 311 310 309 308 307 306
320 319 317 317 316 316 315 315 314 314 314 315 314 314 314 315 315 316 317 318 318 319 320 320 321 322 323 324 323 323 323 324 324 324 324 323 324 324 324 323 323 323 323 322 322 321 321 321 321 321 321 321 320 320 320 320 320 320 319 317 315 314 313 313 312 312 312 311 310 310 310 310 310 309 309 308 306 306 308 309 310 310 309 309 308 308 307
317 317 316 316 316 315 315 314 314 314 314 314 315 314 314 315 316 316 317 317 318 318 318 319 320 321 322 323 322 322 322 322 323 323 323 323 323 323 323 322 322 322 321 321 321 320 320 320 320 320 320 319 319 318 318 318 318 317 316 314 313 312 312 311 310 310 309 309 309 309 309 308 308 307 307 307 306 305 305 307 307 308 308 308 308 307 307
315 316 316 316 315 314 314 314 313 313 313 313 314 314 314 315 316 316 316 317 317 318 318 319 320 321 322 322 322 321 321 322 322 323 323 322 322 322 322 322 321 320 320 320 319 319 319 320 319 319 318 318 317 317 317 317 316 315 313 312 311 310 310 310 309 308 308 308 308 308 307 307 307 306 306 306 306 307 307 307 306 305 305 306 306 306 307
314 315 315 315 315 314 314 314 313 312 312 313 313 313 314 315 315 315 315 316 316 317 317 318 319 320 321 321 322 322 322 322 322 322 322 321 320 321 321 321 320 319 319 319 319 319 319 319 318 318 317 317 317 316 316 315 314 312 311 310 309 309 309 308 308 307 307 307 307 307 306 306 306 306 306 306 307 307 307 306 305 304 303 304 304 305 304
314 314 313 313 313 313 313 313 312 311 312 312 313 313 313 313 314 314 314 315 315 316 317 317 318 319 319 320 321 322 322 322 321 321 321 320 320 320 319 319 319 319 319 319 319 319 319 318 317 317 317 316 315 315 315 314 312 311 310 309 308 308 308 307 307 306 306 306 306 306 305 305 305 305 306 306 306 306 304 303 303 303 303 303 303 303 302
313 313 313 312 312 312 313 312 312 311 311 311 311 311 312 313 313 313 313 314 314 315 316 317 317 318 319 319 320 321 321 321 320 320 320 320 320 319 319 319 319 318 318 318 318 318 317 317 316 316 316 315 314 314 313 313 312 311 310 309 308 308 308 307 306 306 306 306 305 305 305 305 305 305 305 305 305 305 304 303 303 303 302 302 302 301 300
312 312 312 312 312 312 312 311 311 311 310 310 311 311 311 312 312 312 313 314 314 314 315 316 316 317 318 318 319 320 320 320 320 320 320 319 319 319 318 318 318 317 317 316 316 316 316 316 315 315 315 314 314 313 312 312 311 310 310 310 309 308 307 307 306 306 305 305 305 304 305 305 305 305 305 305 304 304 303 302 302 301 300 300 300 300 299
312 312 312 312 311 311 311 310 310 310 309 309 310 310 310 311 311 311 312 313 313 314 314 315 315 316 317 317 318 319 320 320 320 319 319 319 319 318 318 318 317 316 316 316 316 316 316 315 315 315 314 314 313 313 312 311 309 309 309 309 308 307 307 306 306 305 305 305 305 305 305 305 305 305 305 304 304 303 303 302 301 300 300 299 299 299 298
312 313 312 311 310 310 310 310 310 310 309 309 309 309 310 310 310 310 311 313 313 313 314 315 315 316 316 316 316 318 320 320 319 318 318 318 318 318 318 317 317 317 316 316 315 315 315 314 314 314 314 313 313 312 311 310 308 307 307 307 307 307 306 306 305 305 305 305 305 305 305 305 305 304 304 303 303 303 302 301 301 300 300 299 299 298 299
311 311 311 309 308 308 309 309 309 309 309 308 309 309 309 310 310 310 311 312 313 313 314 314 315 315 315 315 315 317 319 319 317 317 317 318 317 317 317 317 317 317 316 315 315 315 315 314 314 313 313 312 311 310 310 309 307 306 306 306 306 306 305 305 305 305 305 305 304 304 304 304 304 303 303 303 303 303 302 302 302 301 300 299 298 299 299
309 308 308 308 308 308 308 308 308 309 308 308 309 309 309 309 309 310 310 312 312 313 313 313 314 314 314 314 314 315 317 317 316 316 316 316 316 317 317 317 316 316 316 315 315 314 314 314 313 313 312 311 310 309 308 307 306 305 305 305 305 305 304 304 304 305 304 304 304 303 303 303 303 303 303 304 303 303 303 303 302 302 301 300 299 299 299
308 307 307 308 308 308 308 308 308 308 308 308 308 309 309 309 309 310 310 311 311 312 312 313 313 314 314 313 313 314 315 315 316 315 315 315 315 316 317 317 317 317 316 315 315 314 313 312 313 312 311 310 309 308 307 307 306 305 305 305 305 304 304 304 305 304 304 304 303 303 303 303 303 303 303 303 303 303 303 303 302 302 301 301 300 300 299
308 308 308 308 308 309 309 309 309 309 308 308 308 309 309 309 309 309 309 310 310 311 311 312 313 313 313 313 312 313 313 314 314 315 315 315 314 314 314 315 315 316 316 315 315 313 312 311 311 311 310 308 307 307 307 307 306 306 305 305 304 304 304 304 304 304 304 304 303 302 302 302 302 302 302 302 302 302 302 302 302 302 301 300 300 299 298
307 307 308 308 308 308 309 308 308 308 308 308 308 308 308 309 309 309 309 309 309 310 311 311 312 312 313 312 312 312 312 312 313 313 314 314 314 313 312 312 312 312 313 313 314 312 311 312 312 311 308 306 305 305 306 306 306 305 304 304 304 304 304 304 304 304 304 303 302 301 301 301 301 301 301 301 301 302 302 303 302 301 300 300 299 299 298
307 306 307 307 308 308 308 308 307 307 308 308 308 308 308 308 309 309 308 309 309 309 310 311 311 312 312 312 311 311 311 311 312 312 313 313 312 311 310 310 310 310 311 312 313 312 311 312 312 310 307 305 304 304 305 305 304 304 303 303 303 303 303 303 303 303 302 301 301 301 301 301 301 301 301 300 300 301 302 302 301 300 299 299 299 299 299
306 306 307 307 308 308 308 308 308 308 307 307 307 308 308 308 308 308 308 308 308 309 309 310 310 311 311 311 311 310 310 310 311 311 312 312 312 311 310 309 308 309 310 312 312 311 311 312 311 309 307 305 305 304 304 304 304 303 303 302 302 302 302 302 301 301 301 301 300 300 300 300 300 300 299 299 299 299 300 300 300 299 299 299 299 298 298
306 307 307 307 307 307 308 308 308 308 307 306 307 307 308 308 308 308 308 308 308 309 309 308 308 309 310 310 310 310 309 309 309 310 310 311 311 311 309 307 307 308 309 310 310 310 310 310 310 309 307 305 305 304 304 304 304 303 302 302 302 302 302 301 301 300 300 300 300 300 300 300 300 299 299 299 299 298 299 299 299 299 299 298 298 298 298
306 306 306 307 307 307 308 309 308 308 307 306 307 307 308 308 307 308 308 308 308 309 309 308 308 308 309 310 310 310 310 310 309 308 308 308 308 308 308 306 306 307 308 309 309 309 309 309 309 308 306 305 305 304 304 304 303 302 301 301 301 301 301 300 300 300 299 299 299 299 299 299 299 299 298 298 298 298 298 298 298 298 298 298 297 297 297
306 306 306 306 307 307 308 308 308 308 307 307 306 307 308 308 308 308 308 308 308 308 308 308 308 308 308 308 309 310 310 310 309 308 306 305 305 305 305 305 306 306 307 308 308 308 308 308 308 307 306 306 305 304 303 303 303 302 301 300 300 300 300 299 299 299 299 298 298 298 297 297 297 297 297 297 297 297 297 297 297 297 297 297 297 297 297
306 307 306 306 307 307 307 307 308 308 308 307 307 307 308 308 308 308 308 308 308 308 308 308 308 308 308 308 308 308 308 308 308 308 308 307 305 304 304 305 305 305 306 307 306 306 307 307 307 306 306 306 306 304 303 302 301 301 300 300 300 299 299 298 298 298 298 297 297 296 296 296 296 296 295 296 296 296 296 296 296 296 296 297 297 297 297
307 307 306 307 307 307 307 307 308 308 308 307 307 307 308 308 308 308 308 308 308 308 307 307 307 307 307 307 307 306 307 307 307 307 307 307 306 303 303 305 305 305 305 306 306 305 305 305 305 305 305 305 305 305 303 302 301 300 300 300 299 299 298 298 298 298 297 297 296 296 296 295 295 295 295 295 295 295 295 295 295 296 296 297 297 297 297
307 307 307 307 307 307 307 307 307 307 307 308 308 308 308 308 308 308 308 308 307 307 307 307 307 307 307 307 307 306 306 306 305 304 304 305 304 303 303 304 304 304 304 305 305 304 303 302 302 303 304 304 303 303 302 301 300 300 299 299 298 298 298 297 297 297 296 295 295 295 294 294 294 294 294 294 294 294 294 295 295 296 297 297 297 297 296
306 306 307 307 307 307 307 307 307 307 307 307 307 307 308 307 308 308 308 307 307 307 307 307 307 307 306 306 306 306 305 305 304 303 303 302 302 301 302 302 303 303 303 303 303 302 301 301 301 302 302 302 302 301 300 300 300 299 298 298 297 297 296 296 296 296 295 295 294 294 294 294 294 294 295 295 296 296 296 296 296 296 297 297 296 296 295
306 307 307 307 308 308 307 307 307 308 308 307 307 308 308 307 307 308 308 307 307 307 307 307 306 306 306 305 305 305 305 304 303 303 302 301 300 300 300 301 301 302 302 302 301 301 301 301 301 301 301 300 300 299 299 299 298 298 297 297 297 296 296 296 296 295 295 295 295 295 296 296 296 296 296 296 296 296 296 296 295 296 296 295 295 294 293
306 306 307 307 307 307 307 307 307 307 307 307 308 308 308 308 307 307 307 307 307 307 307 307 306 306 306 305 304 304 304 303 303 302 301 301 300 300 300 300 300 301 301 301 300 300 300 300 299 299 299 299 298 298 298 298 298 297 297 297 297 296 296 296 296 297 297 297 297 297 297 297 296 296 296 295 295 295 294 294 294 294 294 293 293 293 292
306 306 306 307 307 307 308 307 306 306 307 307 307 308 308 308 307 307 307 307 307 307 307 306 306 306 305 305 304 303 303 303 302 302 301 301 301 300 300 300 300 300 300 300 299 299 299 298 298 298 298 297 297 297 297 298 297 297 297 297 297 297 297 298 298 298 298 297 297 297 296 295 295 295 294 294 293 293 293 292 292 292 292 292 292 291 291
306 306 306 306 306 307 307 307 306 306 306 307 307 307 307 307 307 307 307 307 307 307 307 306 306 305 305 305 304 303 301 301 301 301 300 300 300 299 299 299 299 299 299 299 298 298 298 298 297 297 297 297 297 297 298 298 298 298 298 298 298 298 298 298 298 297 297 296 296 295 295 294 294 293 293 292 292 292 291 291 291 291 291 291 290 290 290
306 306 307 306 306 306 307 307 306 306 306 307 306 306 306 307 307 307 306 305 306 307 306 305 305 305 304 304 303 302 301 301 301 300 299 299 299 299 299 298 298 298 298 297 297 297 297 297 297 297 297 297 297 297 298 298 298 298 298 298 298 298 297 297 297 296 296 295 295 294 294 293 293 292 292 292 291 291 291 291 290 290 290 290 289 289 289
Wind_Speed
14 13 15 18 18 17 16 15 15 16 17 15 11 7 4 1 1 3 11 14 11 7 7 8 7 6 7 3 4 8 7 8 9 10 11 13 13 13 14 14 14 13 13 13 13 13 15 20 22 22 22 22 22 22 21 21 23 24 23 22 22 21 20 20 20 21 21 21 21 21 23 24 23 22 20 20 21 21 22 24 25 26 26 24 23 22 19
12 10 11 16 19 17 16 16 17 17 15 14 11 5 4 9 6 7 14 16 12 8 6 8 9 9 8 3 1 7 10 10 11 11 11 12 13 14 15 14 13 13 13 13 12 13 14 18 21 20 20 21 22 22 21 21 23 23 22 22 22 21 20 20 21 21 20 21 22 22 24 24 23 21 20 21 21 21 23 24 24 25 24 22 21 21 19
8 10 12 15 18 17 17 18 18 17 15 15 11 5 5 7 6 8 13 14 11 7 7 8 10 10 10 2 5 9 11 11 11 11 11 12 13 14 14 14 14 13 13 13 13 13 14 18 21 19 19 21 22 21 22 22 23 22 22 21 21 21 21 21 21 21 20 21 22 23 23 22 21 21 21 22 22 22 23 23 21 22 22 20 19 19 18
5 11 14 16 18 17 16 16 17 16 15 14 7 6 4 2 4 6 8 9 7 5 6 8 10 12 13 9 6 1 5 9 11 11 12 13 13 14 14 13 13 14 14 14 14 13 14 18 19 18 19 22 21 20 21 23 23 22 22 22 22 21 21 21 21 22 21 21 22 23 23 22 20 20 21 23 23 22 21 21 21 20 19 19 19 18 17
6 11 15 17 15 13 11 12 14 15 13 11 9 9 6 7 6 4 5 6 6 5 6 7 9 11 10 7 7 7 3 3 8 9 11 12 11 12 13 13 13 13 12 11 12 14 16 18 20 20 20 20 19 19 20 21 22 22 21 22 23 22 21 22 22 22 22 22 23 22 21 21 21 21 22 22 23 22 21 21 21 19 18 19 19 17 16
6 9 13 14 11 8 5 4 8 13 15 11 9 10 9 9 7 6 6 5 6 7 6 5 7 8 7 4 4 6 7 4 3 8 9 9 8 8 9 11 12 11 10 11 13 14 13 14 15 16 19 20 19 19 21 21 21 21 21 21 22 22 22 22 23 22 22 22 22 22 21 22 22 22 22 22 23 23 21 21 21 19 19 20 18 15 16
4 6 7 9 8 5 3 3 3 9 11 8 12 13 12 12 8 8 8 6 6 8 6 4 6 7 7 6 7 10 11 8 1 6 8 8 7 7 7 8 10 10 10 10 10 11 14 14 11 10 14 17 18 19 21 21 20 20 21 21 21 22 22 22 22 22 22 22 22 22 22 22 22 22 22 23 23 23 22 22 21 20 20 20 18 17 17
2 4 5 7 4 1 2 3 3 4 3 10 13 11 12 13 10 7 7 5 5 8 8 5 5 5 5 6 8 11 13 12 8 6 6 7 7 6 5 6 8 8 9 12 14 16 20 22 18 16 13 12 14 20 22 21 21 20 21 21 21 22 22 21 21 22 22 22 22 23 22 22 22 22 22 23 24 23 23 22 21 20 19 19 19 18 16
3 3 3 4 4 1 1 2 1 3 3 4 6 7 8 12 10 9 8 6 6 8 9 5 3 3 2 3 6 9 11 13 13 12 9 7 6 5 5 6 8 10 14 19 20 18 20 22 20 21 16 10 10 19 22 20 21 20 19 19 20 21 21 21 22 22 22 22 22 23 23 23 23 23 23 24 25 24 24 22 21 20 19 19 20 19 17
3 3 4 3 3 3 0 1 2 4 4 3 3 8 6 9 11 10 8 7 6 5 8 8 7 5 3 1 4 7 9 9 10 12 12 9 6 5 6 7 9 12 17 19 19 17 18 19 21 24 23 14 12 16 19 19 20 19 18 18 19 20 20 21 22 22 22 22 22 23 23 22 22 23 25 26 26 26 25 24 22 21 20 20 19 18 17
4 3 5 3 3 2 1 2 1 2 3 2 2 5 4 7 10 8 7 7 6 4 4 3 3 4 2 3 3 4 6 7 7 9 9 9 9 7 6 7 8 14 18 18 18 17 15 15 16 21 26 22 16 15 17 18 18 17 16 17 19 19 19 20 21 21 21 23 23 23 23 22 22 24 25 27 29 28 27 26 24 23 23 21 19 19 18
4 2 4 2 2 2 3 3 1 3 3 3 1 3 3 5 7 7 7 7 6 5 4 2 2 3 3 4 3 3 6 5 6 7 7 7 9 9 10 10 10 15 20 18 16 15 13 12 12 14 20 21 18 16 16 15 15 15 15 16 16 16 16 19 20 19 21 23 24 24 23 22 23 25 27 28 30 30 29 27 26 24 23 21 19 19 19
2 3 5 2 2 2 4 6 5 4 2 2 2 3 1 4 6 7 8 8 7 7 6 5 4 5 5 5 4 5 8 7 5 5 6 8 10 11 13 15 15 14 16 16 13 11 11 10 9 9 11 13 13 15 16 13 12 14 16 17 16 15 15 17 16 16 19 23 25 24 23 23 24 26 28 31 32 32 29 27 26 25 24 21 20 19 18
3 2 3 3 4 2 5 6 6 5 1 2 3 2 2 4 6 7 9 10 8 7 9 7 6 6 6 6 6 6 7 7 5 4 5 7 9 11 14 16 18 17 14 13 11 8 7 8 11 13 11 8 9 13 15 14 15 17 18 17 17 17 16 15 15 15 18 22 24 23 23 24 25 26 29 31 32 32 30 28 27 27 24 22 21 20 18
0 2 2 3 3 3 6 5 3 6 3 2 3 4 4 5 7 7 9 9 7 5 7 6 5 6 7 6 7 7 6 6 6 6 6 7 7 9 10 11 11 10 11 14 16 13 10 8 8 9 8 7 10 12 13 15 18 20 20 19 18 18 17 16 16 16 18 22 24 24 25 27 28 30 32 32 32 32 31 30 30 28 25 23 23 22 19
1 2 2 1 1 3 5 4 4 5 5 4 4 6 6 6 6 6 7 8 8 5 5 5 4 7 7 7 8 7 6 7 7 7 7 7 7 8 8 8 7 7 9 13 17 18 17 13 10 8 7 7 7 6 10 16 19 18 20 20 19 18 17 16 17 17 18 21 23 24 26 27 28 30 31 31 31 30 29 29 28 26 26 25 24 22 20
2 4 3 1 2 3 5 7 7 7 7 7 7 8 8 6 6 6 6 7 8 7 5 5 6 6 7 8 9 9 8 7 7 6 7 7 6 8 8 8 8 9 12 14 14 16 17 16 14 12 11 11 8 5 7 14 16 15 16 16 16 16 15 15 17 18 17 17 16 18 21 23 25 27 27 27 26 25 25 26 24 23 26 26 23 21 19
4 5 4 2 5 8 8 8 8 8 8 8 9 10 9 8 7 6 5 6 8 9 6 6 7 7 7 9 10 10 9 8 8 7 7 7 7 9 10 9 9 10 12 12 12 13 14 14 13 11 11 12 11 7 6 9 10 11 13 14 15 16 16 16 16 16 15 13 12 13 16 20 23 25 25 24 23 22 23 23 21 21 24 25 22 20 18
2 3 5 5 7 10 11 10 10 10 10 9 9 10 9 8 7 7 7 7 7 9 9 7 7 8 8 9 9 9 8 9 8 8 7 8 9 9 9 8 9 10 10 10 10 11 11 11 10 10 11 12 11 8 7 9 9 10 14 16 17 18 17 15 14 13 13 12 12 12 14 16 20 22 22 22 21 20 22 23 22 22 23 22 21 19 18
4 4 5 6 8 10 10 9 9 8 9 11 11 10 10 10 9 8 9 9 7 8 9 9 7 8 9 8 9 8 8 8 8 7 7 7 8 9 9 10 10 10 9 9 9 9 9 9 8 9 10 10 9 8 7 8 8 9 13 16 16 15 15 14 13 13 14 15 15 15 15 16 17 18 18 18 18 17 19 21 23 23 23 22 20 20 20
5 4 3 4 9 11 11 10 9 9 9 10 10 10 10 11 11 9 9 9 7 6 7 9 8 8 8 8 8 8 7 7 7 7 7 9 9 9 10 11 11 10 9 9 9 10 10 10 9 9 9 8 7 7 6 7 8 10 12 14 13 12 13 13 13 14 16 16 16 16 17 17 17 16 15 17 17 16 17 20 22 24 25 23 20 20 21
4 3 3 2 5 8 8 9 11 11 10 10 10 9 9 11 11 9 9 9 7 5 6 6 7 7 8 8 8 8 7 7 7 7 8 9 10 9 10 11 12 11 10 10 10 10 10 11 10 8 7 7 6 6 6 6 8 11 13 14 14 14 13 13 15 17 18 16 17 19 20 20 19 17 16 16 17 17 17 18 21 24 23 20 20 23 24
4 1 3 1 5 8 8 10 11 11 10 9 10 9 9 9 10 9 9 9 8 6 6 5 5 6 6 6 7 8 7 7 8 8 8 8 9 9 10 11 12 11 11 10 10 9 9 9 9 8 8 8 7 7 6 6 7 9 10 12 14 13 12 13 16 19 19 18 19 21 22 22 22 22 20 18 17 17 18 19 20 22 21 19 21 24 23
6 3 2 5 8 10 10 10 10 10 9 9 9 9 8 8 9 9 9 8 8 7 6 7 7 7 5 6 7 8 8 9 9 9 9 10 10 10 10 11 11 9 8 8 8 9 10 9 9 8 9 8 7 7 7 7 7 8 9 11 12 11 10 12 15 18 20 21 22 23 23 23 24 25 25 23 21 18 18 20 21 21 20 21 22 22 20
7 7 7 10 10 9 9 10 10 9 9 8 8 8 7 7 7 9 9 8 8 8 7 7 9 9 8 7 8 7 8 9 8 8 8 9 10 10 10 10 10 9 8 9 9 10 10 9 7 7 8 9 8 7 7 7 6 7 9 10 10 9 11 13 15 17 20 22 23 23 24 24 24 25 26 26 25 23 22 22 22 21 21 20 21 21 20
7 7 8 10 9 8 7 8 9 10 9 8 7 8 7 6 7 10 11 9 8 9 8 7 7 8 7 7 7 7 8 7 5 5 7 9 9 9 9 9 10 10 11 11 10 9 7 6 7 8 10 10 10 9 8 7 7 8 9 9 8 9 13 15 16 17 19 21 21 22 23 24 25 25 26 27 28 28 26 24 22 22 21 19 19 19 17
7 6 7 8 8 7 8 8 9 10 9 8 7 7 7 8 9 11 12 10 10 10 9 8 8 7 7 8 7 6 6 5 5 6 9 10 9 8 7 9 10 10 10 9 8 7 6 7 9 10 10 9 9 9 8 8 9 9 9 8 9 11 13 16 17 18 18 20 21 22 23 24 25 26 27 29 30 30 29 28 26 24 23 22 21 19 17
7 7 7 7 7 8 8 9 10 9 8 8 8 7 6 10 12 11 10 9 10 9 8 9 10 8 8 9 8 5 5 6 8 9 10 10 9 7 7 8 8 7 6 7 7 6 6 8 9 9 9 8 8 9 8 8 9 9 9 9 11 12 14 15 17 18 19 19 19 21 22 24 26 28 29 29 29 29 29 30 30 28 26 25 23 22 21
7 7 8 7 7 7 6 7 9 9 8 8 9 9 8 9 10 9 8 7 7 7 8 9 11 10 9 9 10 8 6 7 9 10 10 9 8 7 6 6 7 6 6 7 8 8 9 11 10 8 8 8 9 9 8 8 8 9 10 10 11 13 14 15 17 18 18 17 18 20 22 24 25 26 25 24 25 26 26 27 29 30 28 26 25 25 24
7 7 7 6 6 6 6 7 8 10 9 8 8 9 9 9 9 8 8 7 6 6 8 9 9 10 10 10 10 9 7 7 10 10 10 9 7 6 6 5 5 6 8 9 10 11 11 10 9 8 7 8 8 8 7 8 9 9 9 10 11 12 15 17 18 18 18 18 19 21 22 22 22 21 21 21 22 24 24 25 27 28 26 26 26 26 25
5 5 5 4 3 5 7 7 8 10 9 8 8 8 8 8 8 8 7 7 7 7 8 8 8 8 9 10 10 8 6 7 10 11 10 9 8 7 7 6 7 8 9 9 8 8 8 8 8 7 7 7 7 7 7 8 9 9 10 11 12 14 17 18 19 19 20 21 21 21 21 20 20 21 22 22 22 23 23 24 24 24 24 24 25 25 26
3 3 4 4 3 4 7 7 7 8 8 6 6 7 7 7 8 7 7 6 6 7 7 7 7 8 8 9 10 9 5 5 8 9 9 8 8 8 8 8 9 10 9 8 7 7 6 7 7 7 7 7 6 6 7 7 8 10 12 14 16 17 18 18 19 21 23 23 22 21 20 20 21 22 23 24 23 23 23 22 22 22 22 22 24 24 25
3 3 4 6 7 6 7 7 6 7 7 5 5 6 6 6 7 7 6 6 6 7 7 7 8 9 9 9 11 9 5 7 8 7 7 7 7 7 7 7 9 9 9 8 7 7 7 8 7 6 6 7 7 7 7 8 9 11 15 17 18 19 18 19 21 22 22 21 20 21 21 21 22 22 23 23 23 22 23 23 23 22 21 22 23 23 24
4 4 5 7 7 7 7 7 6 6 5 5 6 6 6 6 7 6 5 6 7 7 7 7 8 9 9 9 10 10 7 7 6 6 6 6 6 7 7 7 7 8 7 7 8 8 8 8 7 6 6 7 7 8 9 9 9 12 15 17 19 20 21 22 23 22 21 20 21 22 22 22 22 22 23 22 21 22 24 24 23 22 21 22 22 23 24
5 6 7 8 8 8 6 6 5 5 5 5 6 5 5 6 6 5 5 6 7 7 7 7 8 9 9 9 9 10 9 7 6 6 6 5 4 5 6 6 7 7 7 7 8 8 8 8 8 8 8 7 7 8 9 9 10 13 16 18 20 22 23 22 22 22 22 23 22 22 21 21 22 23 22 20 20 23 25 24 21 20 21 21 22 23 23
7 8 7 7 7 6 6 5 5 6 5 5 5 5 5 6 7 6 6 6 6 6 7 8 8 8 9 9 9 9 9 8 8 7 6 3 2 2 3 5 6 7 8 8 8 8 9 9 8 8 8 8 8 8 8 8 11 15 17 19 22 23 22 21 21 22 23 23 22 20 19 20 21 21 19 17 19 22 23 22 19 19 19 20 21 22 22
10 8 6 5 5 6 6 6 6 6 6 5 5 6 6 6 6 6 5 6 7 6 6 7 7 8 9 9 8 9 9 8 8 8 6 4 5 7 9 8 7 6 7 7 7 7 8 8 7 7 7 8 8 8 9 11 15 17 19 21 23 24 23 22 23 23 23 23 21 19 18 18 18 17 16 16 18 19 19 19 19 20 20 20 20 21 21
9 7 5 5 5 6 7 6 5 6 7 6 7 7 7 6 6 6 6 8 8 7 5 6 6 7 9 9 8 8 9 8 8 8 7 7 9 11 12 11 11 10 8 6 6 8 9 9 8 9 9 9 11 12 12 14 16 18 20 21 22 23 24 24 25 25 24 24 22 20 19 19 18 17 16 15 15 15 17 19 20 20 20 20 20 19 17
7 6 5 5 6 6 6 5 6 8 8 7 7 7 6 6 7 7 7 8 8 7 7 7 6 6 8 9 8 7 8 8 8 7 7 7 9 10 10 10 10 10 9 7 8 9 9 8 8 9 10 12 13 14 14 14 15 18 19 19 19 21 22 24 25 26 25 24 23 22 20 20 20 19 17 16 17 18 19 20 20 21 21 22 21 19 15
6 5 5 5 5 5 5 6 6 7 7 6 7 8 7 7 7 7 7 7 7 7 7 8 8 7 8 8 7 6 6 7 7 6 6 6 7 8 8 8 8 7 8 9 10 10 9 7 7 9 11 11 12 13 14 13 13 16 19 20 19 20 21 22 23 24 24 23 23 22 21 20 21 20 19 20 20 21 21 21 21 21 22 22 21 19 16
6 5 5 4 4 5 6 5 5 5 6 7 7 8 8 8 7 7 7 7 6 7 8 9 8 8 7 7 6 6 5 6 7 7 7 6 5 5 5 6 7 6 7 9 9 8 8 9 9 9 10 11 12 15 16 14 13 15 18 20 21 22 22 22 22 23 23 22 23 23 21 20 19 18 18 18 19 19 19 20 20 21 22 22 21 18 16
6 5 3 3 4 5 5 4 4 5 7 7 7 6 7 8 7 7 7 7 7 6 8 9 8 7 7 6 5 5 5 5 6 8 9 9 7 6 5 5 6 7 8 8 6 6 8 11 11 10 10 11 13 14 15 15 15 16 19 20 22 23 23 23 23 23 23 23 23 23 22 21 19 18 18 18 18 18 18 18 19 21 23 22 20 19 19
5 4 3 3 5 5 4 4 5 5 6 7 7 7 7 7 7 7 7 7 7 7 7 7 7 7 7 6 6 7 7 5 5 8 9 9 8 7 6 5 5 6 7 7 7 5 6 8 9 9 10 14 15 13 13 15 17 18 20 22 23 23 23 23 24 24 24 24 24 24 24 23 22 21 21 20 20 19 19 19 20 21 21 21 20 19 20
5 4 3 3 4 4 4 4 5 4 5 6 8 7 7 7 8 7 7 7 7 8 9 8 8 7 7 6 6 7 7 7 6 4 6 7 7 8 7 7 6 6 6 8 9 7 7 9 10 10 12 15 14 13 14 16 18 20 22 23 23 23 24 24 24 24 25 26 26 26 25 25 24 24 23 22 21 21 20 20 21 21 21 21 20 19 19
5 5 4 4 4 4 4 4 4 4 5 6 7 7 7 7 7 7 8 8 8 8 8 8 8 7 6 6 5 5 5 7 8 8 5 4 4 5 6 6 5 4 4 6 8 9 11 12 12 11 12 12 12 13 16 19 20 21 22 21 21 22 23 23 23 24 25 26 26 26 25 25 24 23 22 22 22 21 21 21 21 21 21 21 20 20 21
5 5 4 3 3 3 4 4 4 3 4 4 4 5 7 7 6 7 8 8 8 8 8 8 8 8 7 5 5 5 6 7 9 10 10 8 7 6 6 5 5 5 6 8 11 12 12 12 11 12 13 13 14 17 19 20 21 21 21 21 21 22 24 24 24 24 25 25 26 26 25 25 24 23 22 22 22 21 21 21 21 20 20 21 22 23 23
4 4 4 3 3 3 3 2 2 3 3 3 3 5 6 6 6 7 8 7 7 8 9 8 8 9 9 8 6 5 6 7 8 10 11 11 10 10 8 8 8 10 13 14 15 14 12 11 12 14 15 16 17 19 20 21 22 22 22 22 23 23 23 23 23 23 24 25 26 27 27 26 25 24 23 23 22 22 22 23 23 22 22 23 23 23 22
3 4 5 3 2 1 1 1 2 3 4 4 5 6 5 4 5 7 7 6 7 8 9 10 10 10 10 10 9 8 7 8 8 7 8 11 13 15 15 15 14 15 16 16 16 15 13 13 14 16 17 19 21 21 22 23 24 25 24 24 23 22 22 23 23 24 24 25 24 24 24 23 22 22 22 22 22 22 23 24 24 24 24 24 23 22 22
3 5 4 2 1 1 2 2 3 4 4 5 5 5 3 3 4 6 6 5 5 7 8 9 10 10 10 10 10 10 10 11 11 10 11 13 15 15 15 15 16 17 18 19 18 16 16 16 18 20 21 23 24 24 24 25 25 25 24 24 23 23 24 24 23 23 22 21 21 21 21 20 20 20 21 22 22 22 23 23 23 23 23 23 23 22 21
3 3 2 2 1 1 2 2 3 4 4 4 4 3 1 1 3 6 5 4 4 5 6 7 9 10 10 9 10 10 11 12 12 12 12 13 13 13 13 14 16 18 19 20 20 19 19 20 21 22 24 25 25 26 26 26 25 25 25 25 25 24 23 22 20 20 20 20 21 21 21 21 21 22 23 24 24 23 23 23 23 22 22 23 23 22 22
2 2 1 1 1 0 1 2 3 4 4 3 2 2 1 1 3 5 5 3 3 4 5 6 8 8 8 7 8 9 9 9 11 12 13 14 15 15 15 16 17 18 18 19 19 20 22 23 24 25 26 27 27 27 27 27 27 26 26 26 25 24 23 22 21 22 22 22 22 22 22 22 23 24 24 24 24 24 23 23 22 22 22 22 22 22 21
2 2 1 1 1 0 0 1 2 3 3 2 2 2 2 1 1 4 5 3 3 3 5 6 7 8 7 6 7 9 9 10 11 13 14 15 17 16 15 16 17 18 19 20 22 23 24 25 26 26 27 27 27 28 28 27 27 26 26 25 25 24 23 22 22 21 22 22 22 22 21 21 22 22 22 22 22 22 22 22 22 22 22 22 21 22 22
Wind_Direction
250 223 200 188 189 195 190 191 204 206 208 211 211 239 266 167 213 88 79 73 71 54 27 38 55 80 83 82 136 133 133 136 136 144 149 153 158 158 160 163 164 170 172 169 169 165 164 165 167 170 173 171 167 167 174 177 172 171 173 170 166 164 166 170 170 167 163 162 165 167 167 166 167 172 179 182 185 187 184 181 180 177 173 170 165 161 158
232 235 227 201 193 194 186 190 207 207 206 210 210 210 93 96 107 99 87 79 70 53 28 32 37 58 73 39 222 143 142 148 145 149 156 159 163 165 166 166 168 172 169 167 167 163 163 166 165 168 170 165 163 169 174 171 169 170 167 163 163 165 166 168 168 165 161 161 163 165 167 170 172 173 174 176 179 182 181 179 176 174 174 173 167 160 156
222 246 249 217 198 196 189 191 201 200 202 211 204 163 110 122 125 99 86 82 71 43 28 36 28 37 54 21 216 153 140 151 150 152 160 164 168 169 167 168 167 168 167 167 169 168 167 168 166 167 165 161 165 172 171 168 167 166 164 161 163 167 166 164 164 164 162 163 164 165 168 173 174 170 169 173 176 177 179 180 175 169 169 171 167 161 157
246 243 237 216 199 198 195 192 197 199 204 206 174 99 65 70 100 104 89 74 64 30 23 44 42 43 42 8 319 65 133 153 150 156 165 165 168 170 170 169 166 168 170 168 170 170 167 167 166 163 159 160 167 171 168 167 164 161 164 165 164 166 165 161 162 163 162 162 163 165 167 167 166 165 167 172 174 172 175 180 176 168 166 164 161 162 161
257 233 218 206 197 197 195 196 199 199 202 194 150 109 75 43 38 66 72 59 65 54 37 53 58 60 61 28 344 345 334 167 148 157 164 159 161 164 164 163 164 169 168 162 167 170 167 166 163 158 157 160 166 168 164 163 161 160 163 165 162 162 163 160 159 160 160 160 160 162 165 163 162 164 164 167 170 167 168 174 174 170 166 162 160 163 163
266 243 214 195 190 190 180 195 207 202 205 194 143 107 84 64 48 60 65 46 54 63 55 68 76 72 75 65 19 7 347 315 167 148 144 143 145 146 151 159 165 168 163 162 167 163 155 156 153 152 158 161 163 168 166 160 157 158 160 161 161 161 161 159 157 159 162 162 161 160 161 160 159 160 161 163 167 167 167 170 169 166 164 163 164 165 162
297 292 235 188 180 186 135 45 273 222 201 145 96 75 64 62 54 60 71 48 39 66 72 72 92 102 93 60 29 18 4 345 29 127 121 121 124 133 150 160 161 162 163 160 145 124 126 139 143 147 164 170 168 167 164 156 152 156 160 161 162 162 161 158 156 160 166 166 163 160 159 160 159 158 160 162 164 167 169 169 168 165 164 166 169 170 166
306 295 227 176 152 108 90 88 304 270 142 103 91 71 51 53 46 41 66 56 30 69 86 65 54 81 92 65 36 20 11 6 20 59 87 99 111 136 159 157 155 155 146 132 123 127 141 148 153 159 175 195 176 155 153 154 153 158 163 164 165 163 160 159 158 163 169 169 166 162 160 161 162 161 162 162 163 166 167 166 164 164 165 166 170 173 174
224 212 180 131 109 53 48 99 19 23 68 84 104 103 62 47 37 17 31 42 27 64 99 116 86 64 47 51 41 24 14 15 26 35 38 56 97 122 121 126 137 129 122 124 126 136 143 144 153 163 173 210 191 152 149 156 156 160 166 166 165 164 161 162 164 168 171 170 168 165 161 162 164 163 162 160 160 164 167 167 165 166 168 168 170 174 177
255 196 133 106 135 159 209 355 18 42 44 11 82 112 85 44 34 13 14 32 25 59 111 144 159 158 168 94 47 27 19 16 28 40 35 32 54 92 111 127 131 119 117 124 128 136 145 151 164 166 160 176 193 160 149 155 157 162 169 165 162 162 162 163 167 171 172 169 166 163 161 163 165 162 160 160 161 165 168 169 167 167 169 170 172 178 179
276 183 142 140 145 130 311 263 254 23 26 343 61 97 76 38 37 16 7 25 17 24 80 126 175 191 170 98 61 40 37 20 25 46 43 36 42 53 79 104 121 122 120 125 135 147 154 154 164 164 157 163 179 164 153 158 159 162 167 163 159 162 166 168 171 173 170 165 163 162 163 166 165 160 159 161 164 167 167 167 166 166 168 170 174 180 181
271 148 121 116 110 75 321 285 303 8 345 290 218 116 73 36 40 24 13 26 26 17 27 50 38 27 69 98 85 73 74 49 33 46 46 48 56 55 59 69 92 122 128 130 136 148 157 153 157 166 162 163 169 161 154 157 155 154 157 155 153 155 160 166 170 170 166 163 161 162 166 168 165 163 163 164 166 169 167 164 165 165 168 171 172 177 182
321 99 108 116 112 70 319 318 353 357 299 241 170 147 71 37 51 38 20 25 30 29 37 57 66 61 77 102 100 90 90 77 58 58 56 61 65 56 53 60 67 88 118 134 138 143 151 144 133 141 154 164 167 157 149 146 143 143 144 146 147 145 147 152 154 154 158 162 162 162 166 167 164 164 168 170 172 173 169 164 164 165 166 168 171 176 181
348 72 107 126 110 50 310 305 349 6 304 173 122 108 59 54 69 61 41 34 28 36 52 62 81 93 92 94 91 85 86 85 82 83 83 80 75 62 58 64 64 64 79 103 111 117 123 117 120 135 151 172 171 154 146 144 144 145 143 143 146 147 149 153 153 151 157 163 164 163 166 167 165 166 172 176 176 174 171 167 165 166 167 167 167 169 171
309 125 118 134 119 9 316 288 347 22 39 136 127 105 83 61 66 69 54 34 14 33 69 73 86 96 86 78 81 75 70 77 78 76 78 78 79 80 74 70 70 71 79 86 93 104 114 120 133 139 146 179 185 168 153 144 144 150 152 149 149 152 157 163 166 166 168 170 172 174 175 177 175 173 175 177 176 174 172 169 166 165 163 161 159 159 161
278 99 82 100 135 18 16 57 85 69 79 106 102 93 82 58 56 64 53 29 6 17 75 82 78 88 84 74 73 67 57 61 63 66 72 69 75 98 106 104 107 111 104 101 108 118 124 132 143 138 140 171 181 162 146 142 143 150 155 156 158 160 160 161 165 170 172 172 174 176 178 180 178 175 175 176 176 175 173 170 168 162 156 154 157 160 164
47 74 81 173 152 94 64 72 89 96 99 95 84 82 79 67 59 54 44 32 10 6 49 76 62 67 78 77 74 71 65 61 55 56 63 65 73 90 99 111 120 110 96 96 107 112 114 120 130 135 144 150 138 112 131 141 144 152 156 155 156 156 148 144 151 160 165 166 169 174 177 176 175 173 175 177 178 177 173 172 170 162 154 156 162 166 167
86 65 62 63 83 88 82 78 80 80 77 79 81 81 76 70 65 57 50 44 20 6 21 67 75 70 73 79 81 79 74 67 55 49 52 54 62 71 76 85 98 98 92 91 93 93 94 100 107 112 121 129 126 120 120 119 125 144 151 145 141 141 139 140 146 153 157 159 165 174 178 178 178 178 179 179 179 176 173 172 172 164 157 157 163 165 160
104 59 57 56 64 73 76 76 76 73 69 69 75 83 86 80 68 56 52 50 30 11 12 37 73 84 80 81 85 83 80 77 66 56 58 55 54 57 61 71 85 91 87 82 77 78 80 85 95 100 102 107 110 110 106 99 102 121 132 130 128 130 136 145 152 156 161 164 166 172 176 179 181 181 181 182 181 177 175 174 170 164 157 153 153 153 150
77 82 78 77 77 73 70 70 70 70 72 71 70 79 91 90 79 64 58 54 35 12 7 12 38 67 74 79 84 83 84 86 80 73 75 71 67 66 62 60 68 77 79 77 77 77 75 75 82 84 85 91 100 104 106 108 109 116 123 124 122 123 130 141 149 155 163 165 163 165 169 171 173 175 177 180 179 176 176 172 164 157 152 148 149 152 154
76 64 38 65 82 74 66 66 66 62 64 66 66 69 78 83 81 73 71 72 57 26 12 5 13 42 61 69 79 82 80 82 82 81 79 75 71 70 68 63 63 68 73 72 70 68 65 64 67 67 68 76 86 93 103 114 121 129 133 131 128 128 131 138 147 153 156 158 159 162 163 160 159 159 164 170 169 164 166 170 165 157 152 150 153 156 154
73 35 322 342 79 74 61 59 61 61 59 58 60 61 64 71 74 69 73 82 80 62 42 19 8 26 44 56 73 81 80 79 80 78 77 75 70 66 67 66 63 59 58 59 61 61 56 55 57 59 63 68 74 84 95 105 113 124 131 131 131 134 137 143 152 153 151 154 159 161 159 154 147 141 142 152 155 150 152 160 164 161 155 153 156 156 151
92 170 245 223 83 80 69 57 53 57 58 56 55 51 51 62 70 69 70 73 69 62 58 44 21 15 26 45 63 74 77 78 79 77 73 71 72 72 72 70 65 56 49 49 55 56 53 54 57 56 56 56 58 68 78 88 105 119 129 130 129 133 139 147 154 156 155 155 156 156 155 152 146 137 130 129 133 136 141 147 153 158 159 155 155 158 158
106 124 122 85 80 78 71 61 54 54 58 61 57 43 38 55 72 75 70 64 57 54 52 46 31 17 22 42 51 60 68 66 65 67 64 59 60 65 71 75 73 66 56 54 58 56 51 51 52 52 54 53 49 55 65 72 89 113 129 131 127 127 138 151 157 158 157 155 154 153 151 149 146 141 132 123 114 116 131 141 144 148 152 150 150 155 160
91 95 84 77 79 81 78 71 61 52 55 69 76 65 48 44 55 68 69 62 51 46 43 40 31 21 28 43 44 49 62 63 56 56 58 59 60 62 67 72 70 64 59 59 60 59 56 54 55 58 61 58 53 57 66 70 83 107 122 126 125 132 145 152 155 157 156 154 154 153 150 147 145 142 137 129 118 112 119 130 136 138 142 146 149 150 152
70 86 87 81 78 76 74 67 59 50 45 52 73 85 80 58 43 53 60 56 48 45 41 37 30 24 32 45 47 53 68 78 79 70 66 66 63 58 60 66 69 67 65 62 61 63 63 62 67 65 61 58 56 57 65 79 94 105 112 118 129 146 154 154 153 155 156 154 153 152 150 148 145 141 138 135 129 122 118 118 121 125 129 137 145 148 147
50 55 73 80 76 66 62 65 65 57 43 38 47 66 89 91 70 58 55 46 39 41 40 33 29 31 39 43 44 54 72 83 90 82 73 68 61 54 62 76 78 75 73 75 82 91 86 76 72 66 60 61 64 64 71 86 97 102 111 123 134 143 150 152 152 152 153 154 153 152 149 148 146 143 139 137 134 132 130 127 124 122 126 133 142 147 148
54 50 57 63 60 56 57 67 73 66 51 45 39 32 64 88 79 64 58 48 37 38 38 30 26 29 35 36 36 46 69 78 80 78 76 74 68 60 65 79 84 87 93 102 112 114 96 83 79 71 61 61 68 73 81 92 98 104 114 124 129 133 140 146 149 149 150 150 152 152 150 148 147 145 142 141 140 139 139 137 134 132 132 136 140 143 146
44 44 50 50 51 56 55 59 69 67 56 52 42 23 33 70 75 65 61 56 43 42 42 31 24 27 33 36 36 35 42 64 76 77 78 82 84 78 76 85 90 91 91 93 91 84 78 79 81 77 68 67 71 75 79 88 98 106 115 122 126 130 136 141 144 145 145 145 148 151 150 148 146 145 144 143 141 138 135 134 135 136 137 139 141 142 145
37 36 41 37 38 52 51 46 55 58 50 47 48 38 35 52 63 59 55 51 41 42 43 33 23 25 29 34 38 37 40 61 73 74 74 78 83 82 83 93 94 78 67 66 69 72 75 77 78 77 76 78 81 83 85 92 100 107 117 125 129 134 140 142 142 141 140 142 146 147 145 143 144 144 141 139 138 137 136 136 138 139 140 142 144 143 143
44 37 39 32 33 57 58 47 50 56 47 37 44 49 46 50 57 57 53 48 39 35 38 37 28 23 23 26 27 26 39 73 82 81 78 76 77 75 74 81 89 81 70 66 71 78 84 83 79 78 82 88 92 95 99 104 108 116 127 134 137 141 143 143 142 141 140 140 140 140 138 139 140 140 138 138 140 141 140 138 137 137 138 140 142 143 143
41 32 34 23 13 58 70 58 50 57 54 42 45 54 50 47 51 53 52 53 48 36 35 40 36 28 25 22 14 6 18 76 86 88 91 85 76 71 75 89 99 96 87 82 81 85 91 91 84 82 87 92 95 100 106 110 115 125 134 137 139 142 144 144 144 142 140 139 138 137 138 138 139 140 141 142 142 142 140 137 135 135 136 138 141 143 146
34 45 37 17 4 19 49 54 50 55 56 45 46 56 55 52 53 51 47 54 58 46 34 34 36 34 30 22 8 6 46 88 79 77 93 98 86 77 78 89 100 101 93 85 82 84 90 93 90 87 90 93 92 97 104 107 114 126 136 140 142 144 145 143 140 138 135 133 134 135 136 137 137 139 139 138 138 138 137 135 133 132 135 139 142 146 151
49 54 45 33 26 24 31 39 44 51 54 47 43 44 44 48 54 51 40 43 56 52 37 32 37 40 38 28 15 17 47 82 75 58 67 83 96 101 98 95 101 107 102 90 82 80 85 96 101 99 95 93 93 98 103 106 115 129 139 142 141 140 138 137 135 132 130 129 130 131 132 133 136 137 134 133 134 136 134 133 133 134 137 141 145 149 154
70 65 53 47 45 42 41 47 49 47 49 54 53 48 39 39 49 55 46 43 52 55 44 38 42 44 44 41 34 29 39 64 82 77 68 65 79 109 122 128 130 123 111 95 83 80 88 101 108 107 100 90 88 96 102 107 118 132 140 140 137 134 133 133 132 130 129 129 130 130 131 134 137 138 134 132 136 138 136 134 135 137 141 146 152 156 160
66 69 65 60 56 53 53 54 55 55 53 51 55 58 50 40 39 41 44 46 49 52 50 46 46 47 48 49 44 37 38 51 66 74 78 79 61 73 111 134 139 132 121 104 86 85 97 105 109 114 116 109 103 106 112 116 124 133 138 138 135 132 131 131 130 129 130 131 130 129 132 136 139 140 137 136 141 143 141 139 141 143 147 154 161 165 167
63 65 70 75 76 73 64 54 53 62 63 54 49 50 47 40 32 26 35 45 42 37 45 48 46 53 64 63 53 43 38 36 43 54 61 65 62 58 58 56 59 76 99 101 91 91 99 96 89 91 100 104 109 119 126 126 128 133 137 138 137 136 134 132 131 131 132 131 130 129 131 134 138 139 139 141 148 151 148 145 147 148 150 155 162 166 170
76 75 73 68 63 67 66 56 48 52 54 50 47 43 37 34 28 20 31 44 37 21 26 43 50 60 71 68 57 48 38 29 33 44 45 46 58 63 58 49 42 37 40 60 94 107 102 91 84 83 87 95 106 112 116 120 126 133 137 139 139 139 138 136 136 136 135 133 131 129 127 125 124 123 123 129 139 145 145 145 146 146 146 148 151 155 159
79 71 64 62 58 57 58 53 48 47 44 42 46 46 37 30 25 22 31 41 32 14 14 27 37 55 66 64 57 50 38 29 34 43 44 52 69 74 67 56 51 47 46 66 104 115 102 88 87 92 96 104 110 111 111 117 128 135 139 140 139 140 139 137 136 136 136 135 133 128 123 122 121 119 118 120 125 130 137 143 145 144 143 144 143 140 133
71 61 54 57 59 56 54 54 55 51 38 28 36 42 39 31 27 26 31 33 26 19 24 27 27 36 52 59 58 52 42 37 38 43 49 63 83 90 77 54 40 49 75 97 114 118 109 103 107 107 107 113 121 121 119 122 131 137 140 142 141 139 137 135 132 132 134 137 136 133 129 128 127 125 122 121 121 123 128 135 137 138 139 138 134 129 121
66 56 47 51 64 66 60 55 53 47 37 34 39 40 34 29 26 27 29 28 26 35 47 47 35 27 33 44 56 63 60 52 46 45 48 53 67 85 78 46 26 47 95 115 119 114 107 109 115 115 113 123 136 138 132 129 132 138 142 144 142 139 136 134 133 132 134 137 138 139 139 139 136 131 128 125 123 123 127 130 134 138 137 132 127 124 121
77 70 56 52 63 67 60 52 49 43 37 39 44 42 33 30 30 33 39 37 30 37 58 67 60 41 25 24 45 67 76 80 79 72 60 49 48 63 75 61 52 69 96 111 113 106 105 111 116 118 117 121 131 139 140 137 136 139 141 141 139 136 134 132 130 131 133 133 133 135 139 140 137 134 130 127 124 123 125 127 131 135 135 130 126 125 124
81 77 62 54 62 68 61 48 46 43 34 35 42 44 39 36 36 37 40 40 32 26 33 48 53 45 27 18 29 46 49 56 84 97 88 73 64 70 90 99 84 72 85 101 103 97 105 117 123 127 123 117 115 121 131 134 135 136 137 134 132 131 130 129 129 129 130 128 128 128 129 130 129 127 126 125 124 124 125 127 130 134 135 133 131 129 127
95 87 66 48 50 64 66 54 45 39 35 40 46 46 41 42 43 39 34 34 35 32 30 30 33 35 34 32 32 33 28 20 23 58 97 97 80 73 89 106 97 75 86 109 115 109 109 116 122 128 129 125 123 127 130 129 128 129 129 129 128 128 127 127 126 126 126 125 125 126 126 126 126 126 126 126 127 128 128 127 129 131 133 134 132 127 123
92 81 68 51 43 49 57 56 48 34 29 39 51 54 48 44 45 44 41 39 39 40 42 41 35 31 39 54 60 55 44 32 22 21 41 77 78 71 88 106 99 69 75 109 120 117 114 117 123 129 132 134 136 136 132 127 125 124 124 124 125 126 126 125 123 122 122 122 123 124 125 124 124 124 125 125 125 126 127 127 126 127 129 129 125 119 116
96 89 78 69 65 60 53 48 41 29 25 36 60 69 58 46 42 47 50 51 49 46 47 50 46 36 36 57 79 83 75 62 50 47 55 72 86 92 98 104 102 94 96 105 109 109 109 112 118 123 124 125 128 127 125 123 123 122 121 121 121 121 121 121 120 118 119 120 121 122 122 122 121 122 123 124 125 126 128 127 125 123 123 121 118 117 118
129 122 99 73 59 55 51 43 36 33 32 40 68 73 64 53 50 54 55 56 59 59 58 60 58 48 41 44 54 67 82 84 73 63 65 74 82 89 95 101 105 106 105 104 103 103 104 108 114 117 117 119 121 121 120 120 120 119 117 117 117 117 117 118 118 119 121 123 123 122 122 122 122 122 122 121 120 121 122 121 118 116 116 117 117 119 121
134 107 101 103 101 76 48 37 39 42 41 45 60 71 73 68 67 68 66 63 65 70 73 74 70 62 56 55 53 55 77 96 93 79 79 88 90 91 94 98 101 102 100 98 97 98 101 106 113 119 121 121 120 119 120 121 121 119 117 117 118 120 120 120 120 120 121 120 119 118 117 117 116 116 114 113 114 116 119 118 117 117 118 120 120 121 120
103 96 108 135 140 49 19 17 33 50 56 58 64 76 92 97 84 78 74 67 65 67 70 72 70 65 63 66 67 69 78 92 98 100 102 102 98 94 93 94 96 98 100 100 101 105 110 113 117 119 119 117 116 116 117 118 118 118 118 118 119 120 120 118 117 117 117 116 116 116 116 116 116 117 117 117 117 119 122 122 121 122 125 125 123 120 118
95 116 142 139 88 30 6 9 23 37 51 66 76 85 96 91 79 75 67 57 61 66 60 57 63 66 65 68 76 80 82 86 94 100 103 100 96 97 100 101 100 101 102 102 102 106 112 116 118 118 117 116 115 115 115 115 115 115 115 116 116 115 114 113 112 113 115 116 117 118 120 121 122 122 121 120 118 118 119 119 119 120 122 120 118 116 114
150 182 171 114 107 77 8 8 19 33 43 52 68 83 75 42 63 75 68 37 29 63 71 64 64 71 74 74 78 83 85 90 96 101 103 103 103 104 107 109 109 107 105 104 105 108 111 114 117 118 118 118 117 116 115 115 114 114 114 115 115 114 111 110 109 109 109 110 110 111 113 115 116 115 114 115 115 114 114 114 114 114 114 114 115 115 116
183 158 72 338 298 172 36 339 350 28 46 33 22 52 88 108 88 96 98 72 21 48 77 76 68 69 75 79 82 85 89 96 101 103 103 104 105 104 103 105 108 107 106 107 110 113 114 115 116 117 118 118 118 118 119 118 117 114 113 113 114 113 111 110 110 110 109 107 107 108 110 113 115 116 116 116 116 116 115 115 115 115 115 116 116 116 115